User: anonymous   Login
Location: Ferchesar
(52.6477°N, 12.4298°E)
Time: 05:24:44
(UTC+02:00)
Language:

Transit 4A - Orbit

View from above orbital plane
View from above orbital plane
View from above satellite
View from above satellite

Ground track
Ground track

The orbit data is extracted from the following two-line orbital elements,

1 00116U 61015A   22274.84557015 -.00000009  00000-0  51826-4 0  9999
2 00116  66.8106 323.4598 0071998 147.2714 213.2857 13.91847326108192
Epoch (UTC): 01 October 2022 20:17:37
Eccentricity: 0.0071998
inclination: 66.8106°
perigee height: 869 km
apogee height: 975 km
right ascension of ascending node: 323.4598°
argument of perigee: 147.2714°
revolutions per day: 13.91847326
mean anomaly at epoch: 213.2857°
orbit number at epoch: 10819

The dashed part of the orbit path shows where the satellite is in the earth's shadow,  

DLR